When you browse on this site, cookies collect data to enhance your experience and personalize the content and advertising you see.
Visit our Privacy Policy to learn more. By continuing to use the site, you agree to this use of cookies and data.
  • In Hungary
  • List of Countries
  • For 7 days
  • Water Temperature
  • Weather Map
  • News
  • Weather Widgets
  • user-avatar
    Login

    Hourly Weather Barasat

    Today, 28 February, Friday

    Time Temperature Precipitation Wind Pressure Humidity
    00:00 +22°C° 0 mm 1 mps 759 mmHg 48%
    01:00 +22°C° 0 mm 1 mps 759 mmHg 49%
    02:00 +21°C° 0 mm 1 mps 758 mmHg 51%
    03:00 +21°C° 0 mm 1 mps 758 mmHg 52%
    04:00 +20°C° 0 mm 1 mps 758 mmHg 53%
    05:00 +20°C° 0 mm 1 mps 758 mmHg 55%
    06:00 +18°C° 0 mm 0 mps 759 mmHg 59%
    07:00 +22°C° 0 mm 1 mps 759 mmHg 54%
    08:00 +24°C° 0 mm 1 mps 760 mmHg 48%
    09:00 +26°C° 0 mm 2 mps 760 mmHg 42%
    10:00 +27°C° 0 mm 2 mps 760 mmHg 39%
    11:00 +29°C° 0 mm 2 mps 760 mmHg 35%
    12:00 +30°C° 0 mm 2 mps 760 mmHg 32%
    13:00 +30°C° 0 mm 2 mps 759 mmHg 30%
    14:00 +31°C° 0 mm 2 mps 758 mmHg 28%
    15:00 +33°C° 0 mm 3 mps 757 mmHg 26%
    16:00 +30°C° 0 mm 2 mps 757 mmHg 29%
    17:00 +29°C° 0 mm 2 mps 757 mmHg 31%
    18:00 +27°C° 0 mm 2 mps 757 mmHg 35%
    19:00 +26°C° 0 mm 2 mps 758 mmHg 36%
    20:00 +26°C° 0 mm 2 mps 758 mmHg 37%
    21:00 +25°C° 0 mm 2 mps 759 mmHg 38%
    22:00 +24°C° 0 mm 2 mps 759 mmHg 39%
    23:00 +24°C° 0 mm 1 mps 759 mmHg 40%

    Tomorrow, 29 February, Saturday

    Time Temperature Precipitation Wind Pressure Humidity
    00:00 +23°C° 0 mm 1 mps 759 mmHg 42%
    01:00 +22°C° 0 mm 1 mps 758 mmHg 43%
    02:00 +21°C° 0 mm 2 mps 757 mmHg 45%
    03:00 +20°C° 0 mm 2 mps 757 mmHg 47%
    04:00 +20°C° 0 mm 2 mps 757 mmHg 47%
    05:00 +20°C° 0 mm 1 mps 757 mmHg 48%
    06:00 +20°C° 0 mm 1 mps 757 mmHg 48%
    07:00 +22°C° 0 mm 1 mps 758 mmHg 44%
    08:00 +24°C° 0 mm 1 mps 758 mmHg 40%
    09:00 +26°C° 0 mm 1 mps 759 mmHg 36%
    10:00 +28°C° 0 mm 1 mps 759 mmHg 33%
    11:00 +30°C° 0 mm 1 mps 759 mmHg 30%
    12:00 +31°C° 0 mm 1 mps 759 mmHg 27%
    13:00 +32°C° 0 mm 1 mps 758 mmHg 26%
    14:00 +32°C° 0 mm 2 mps 757 mmHg 24%
    15:00 +34°C° 0 mm 2 mps 756 mmHg 23%
    16:00 +32°C° 0 mm 2 mps 756 mmHg 25%
    17:00 +30°C° 0 mm 2 mps 756 mmHg 28%
    18:00 +29°C° 0 mm 2 mps 756 mmHg 30%
    19:00 +28°C° 0 mm 1 mps 757 mmHg 31%
    20:00 +27°C° 0 mm 1 mps 757 mmHg 33%
    21:00 +26°C° 0 mm 1 mps 758 mmHg 34%
    22:00 +25°C° 0 mm 1 mps 758 mmHg 37%
    23:00 +24°C° 0 mm 1 mps 758 mmHg 40%

    Day after tomorrow, 1 March, Sunday

    Time Temperature Precipitation Wind Pressure Humidity
    00:00 +23°C° 0 mm 1 mps 758 mmHg 42%
    01:00 +23°C° 0 mm 1 mps 758 mmHg 44%
    02:00 +23°C° 0 mm 1 mps 757 mmHg 47%
    03:00 +22°C° 0 mm 1 mps 757 mmHg 49%
    04:00 +22°C° 0 mm 1 mps 757 mmHg 53%
    05:00 +21°C° 0 mm 1 mps 757 mmHg 56%
    06:00 +21°C° 0 mm 1 mps 757 mmHg 60%
    07:00 +23°C° 0 mm 1 mps 758 mmHg 54%
    08:00 +25°C° 0 mm 1 mps 759 mmHg 48%
    09:00 +28°C° 0 mm 1 mps 759 mmHg 42%
    10:00 +30°C° 0 mm 1 mps 759 mmHg 37%
    11:00 +32°C° 0 mm 1 mps 758 mmHg 31%
    12:00 +33°C° 0 mm 1 mps 758 mmHg 26%
    13:00 +34°C° 0 mm 1 mps 757 mmHg 25%
    14:00 +34°C° 0 mm 1 mps 756 mmHg 24%
    15:00 +35°C° 0 mm 1 mps 756 mmHg 22%
    16:00 +33°C° 0 mm 1 mps 755 mmHg 25%
    17:00 +32°C° 0 mm 1 mps 755 mmHg 28%
    18:00 +31°C° 0 mm 1 mps 755 mmHg 30%
    19:00 +29°C° 0 mm 2 mps 756 mmHg 34%
    20:00 +28°C° 0 mm 2 mps 756 mmHg 38%
    21:00 +27°C° 0 mm 3 mps 756 mmHg 41%
    22:00 +26°C° 0 mm 3 mps 756 mmHg 44%
    23:00 +25°C° 0 mm 2 mps 756 mmHg 46%

    2 March, Monday

    Time Temperature Precipitation Wind Pressure Humidity
    00:00 +24°C° 0 mm 2 mps 756 mmHg 49%
    01:00 +24°C° 0 mm 2 mps 756 mmHg 52%
    02:00 +23°C° 0 mm 2 mps 756 mmHg 55%
    03:00 +23°C° 0 mm 1 mps 756 mmHg 59%
    04:00 +22°C° 0 mm 1 mps 756 mmHg 62%
    05:00 +22°C° 0 mm 1 mps 756 mmHg 65%
    06:00 +22°C° 0 mm 1 mps 756 mmHg 68%
    07:00 +24°C° 0 mm 1 mps 756 mmHg 61%
    08:00 +26°C° 0 mm 2 mps 757 mmHg 54%
    09:00 +29°C° 0 mm 3 mps 758 mmHg 46%
    10:00 +31°C° 0 mm 3 mps 758 mmHg 40%
    11:00 +34°C° 0 mm 3 mps 757 mmHg 34%
    12:00 +36°C° 0 mm 3 mps 757 mmHg 28%
    13:00 +36°C° 0 mm 3 mps 756 mmHg 26%
    14:00 +37°C° 0 mm 3 mps 755 mmHg 24%
    15:00 +37°C° 0 mm 3 mps 754 mmHg 22%
    16:00 +36°C° 0 mm 4 mps 754 mmHg 26%
    17:00 +34°C° 0 mm 5 mps 754 mmHg 31%
    18:00 +32°C° 0 mm 5 mps 754 mmHg 35%
    19:00 +30°C° 0.2 mm 5 mps 755 mmHg 42%
    20:00 +28°C° 0.2 mm 5 mps 756 mmHg 49%
    21:00 +27°C° 0.2 mm 5 mps 757 mmHg 56%
    22:00 +26°C° 0 mm 4 mps 756 mmHg 57%
    23:00 +25°C° 0 mm 3 mps 756 mmHg 58%

    3 March, Tuesday

    Time Temperature Precipitation Wind Pressure Humidity
    00:00 +25°C° 0 mm 2 mps 756 mmHg 60%
    01:00 +24°C° 0 mm 2 mps 756 mmHg 61%
    02:00 +24°C° 0 mm 2 mps 755 mmHg 63%
    03:00 +23°C° 0 mm 2 mps 755 mmHg 64%
    04:00 +23°C° 0 mm 2 mps 755 mmHg 66%
    05:00 +23°C° 0 mm 2 mps 755 mmHg 67%
    06:00 +21°C° 0 mm 2 mps 755 mmHg 69%
    07:00 +24°C° 0 mm 2 mps 756 mmHg 63%
    08:00 +26°C° 0 mm 2 mps 757 mmHg 58%
    09:00 +28°C° 0 mm 3 mps 757 mmHg 53%
    10:00 +31°C° 0 mm 3 mps 757 mmHg 46%
    11:00 +34°C° 0 mm 4 mps 757 mmHg 38%
    12:00 +36°C° 0 mm 4 mps 756 mmHg 31%
    13:00 +37°C° 0 mm 5 mps 755 mmHg 29%
    14:00 +37°C° 0 mm 5 mps 754 mmHg 27%
    15:00 +39°C° 0 mm 5 mps 753 mmHg 26%
    16:00 +36°C° 0 mm 5 mps 753 mmHg 31%
    17:00 +34°C° 0 mm 5 mps 753 mmHg 37%
    18:00 +32°C° 0 mm 5 mps 753 mmHg 43%
    19:00 +29°C° 0.2 mm 4 mps 754 mmHg 50%
    20:00 +28°C° 0.2 mm 3 mps 754 mmHg 58%
    21:00 +26°C° 0.2 mm 3 mps 755 mmHg 65%
    22:00 +26°C° 0 mm 3 mps 755 mmHg 68%
    23:00 +25°C° 0 mm 3 mps 755 mmHg 72%

    4 March, Wednesday

    Time Temperature Precipitation Wind Pressure Humidity
    00:00 +25°C° 0 mm 3 mps 755 mmHg 75%
    01:00 +25°C° 0 mm 3 mps 754 mmHg 77%
    02:00 +24°C° 0 mm 3 mps 754 mmHg 79%
    03:00 +24°C° 0 mm 2 mps 754 mmHg 81%
    04:00 +24°C° 0 mm 2 mps 754 mmHg 82%
    05:00 +24°C° 0 mm 2 mps 754 mmHg 83%
    06:00 +24°C° 0 mm 3 mps 754 mmHg 84%
    07:00 +26°C° 0 mm 3 mps 755 mmHg 75%
    08:00 +28°C° 0 mm 4 mps 756 mmHg 66%
    09:00 +30°C° 0 mm 5 mps 757 mmHg 57%
    10:00 +32°C° 0 mm 4 mps 756 mmHg 52%
    11:00 +34°C° 0 mm 4 mps 756 mmHg 46%
    12:00 +35°C° 0 mm 4 mps 756 mmHg 40%
    13:00 +36°C° 0 mm 4 mps 755 mmHg 35%
    14:00 +37°C° 0 mm 4 mps 754 mmHg 29%
    15:00 +38°C° 0 mm 3 mps 753 mmHg 24%
    16:00 +34°C° 1.3 mm 5 mps 754 mmHg 34%
    17:00 +30°C° 1.3 mm 7 mps 754 mmHg 44%
    18:00 +26°C° 1.3 mm 8 mps 754 mmHg 54%
    19:00 +26°C° 0 mm 6 mps 755 mmHg 60%
    20:00 +26°C° 0 mm 4 mps 755 mmHg 66%
    21:00 +26°C° 0 mm 2 mps 756 mmHg 71%
    22:00 +25°C° 0.1 mm 2 mps 756 mmHg 72%
    23:00 +25°C° 0.1 mm 2 mps 756 mmHg 73%
    Show more